SCP
1 1 1 1 1 1 1 1 1 1 1 1 1 1 1 1 1 1 0 0 0 0 0 0 1 1 1 1 1 1 1 1 1 0 0 0 0 0 1 1 1 1 1
1 1 1 1 1 1 1 1 1 1 1 1 1 1 1 1 1 1 0 0 0 0 0 1 1 1 0 0 1 1 1 1 1 0 0 0 0 0 0 1 1 1 1
1 2 2 2 1 1 1 1 1 1 1 1 1 0 0 1 1 1 0 0 0 1 1 0 0 0 0 0 1 1 1 1 1 0 0 0 0 0 0 0 0 0 0
1 2 2 2 2 2 2 2 1 1 1 1 1 0 1 1 1 1 0 0 0 0 0 0 0 0 0 0 0 1 1 1 1 1 1 0 0 0 0 0 0 0 0
1 2 2 3 3 3 3 3 3 2 1 1 1 1 1 1 1 0 0 0 0 0 0 0 0 0 0 0 0 1 1 1 1 1 1 0 0 0 0 0 0 0 0
1 2 3 4 4 4 4 4 4 3 2 1 1 1 1 1 1 0 0 0 0 0 0 0 0 0 0 0 0 0 1 1 1 1 1 1 0 0 0 0 0 0 0
2 2 2 4 5 6 5 4 4 3 2 1 1 1 1 1 0 0 0 0 0 0 0 0 0 0 0 0 0 0 0 0 1 1 1 1 1 0 0 0 0 0 0
2 2 1 2 4 5 5 4 3 2 1 1 1 0 0 0 0 0 0 0 0 0 0 0 0 0 0 0 0 0 0 0 0 1 1 1 1 0 0 0 0 0 0
1 1 1 1 2 3 3 2 2 1 1 0 0 0 0 0 0 0 0 0 0 0 0 0 0 0 0 0 0 0 0 0 0 0 1 1 0 0 0 0 0 0 0
1 0 0 0 0 1 1 1 1 0 0 0 0 0 0 0 0 0 0 0 0 0 0 0 0 0 0 0 0 0 0 0 0 0 0 0 0 0 0 0 0 0 0
0 0 0 0 0 0 0 0 0 0 0 0 0 0 0 0 0 0 0 0 0 0 0 0 0 0 0 0 0 0 0 0 0 0 0 0 0 0 0 0 0 0 0
0 0 0 0 0 0 0 0 0 0 0 0 0 0 0 0 0 0 0 0 0 0 0 0 0 0 0 0 0 0 0 0 0 0 0 0 0 0 0 0 0 0 0
0 0 0 0 0 0 0 0 0 0 0 0 0 0 0 0 0 0 0 0 0 0 0 0 0 0 0 0 0 0 0 0 0 0 0 0 0 0 0 0 0 0 0
0 0 0 0 0 0 0 0 0 0 0 0 0 0 0 0 0 0 0 0 0 0 0 0 0 0 0 0 0 0 0 0 0 0 0 0 0 0 0 0 0 0 0
0 0 0 0 0 0 0 0 0 0 0 0 0 0 0 0 0 0 0 0 0 0 0 0 0 0 0 0 0 0 0 0 0 0 0 0 0 0 0 0 0 0 0
0 0 0 0 0 0 0 0 0 0 0 0 0 0 0 0 0 0 0 0 0 0 0 0 0 0 0 0 0 0 0 0 0 0 0 0 0 0 0 0 0 0 0
0 0 0 0 0 0 0 0 0 0 0 0 0 0 0 0 0 0 0 0 0 0 0 0 0 0 0 0 0 0 0 0 0 0 0 0 0 0 0 0 0 0 0
0 0 0 0 0 0 0 0 0 0 0 0 0 0 0 0 0 0 0 0 0 0 0 0 0 0 0 0 0 0 0 0 0 0 0 0 0 0 0 0 0 0 0
0 0 0 0 0 0 0 0 0 0 0 0 0 0 0 0 0 0 0 0 0 0 0 0 0 0 0 0 0 0 0 0 0 0 0 0 0 0 0 0 0 0 0
0 0 0 0 0 0 0 0 0 0 0 0 0 0 0 0 0 0 0 0 0 0 0 0 0 0 0 0 0 0 0 0 0 0 0 0 0 0 0 0 0 0 0
0 0 0 0 0 0 0 0 0 0 0 0 0 0 0 0 0 0 0 0 0 0 0 0 0 0 0 0 0 0 0 0 0 0 0 0 0 0 0 0 0 0 0
0 0 0 0 0 0 0 0 0 0 0 0 0 0 0 0 0 0 0 0 0 0 0 0 0 0 0 0 0 0 0 0 0 0 0 0 0 0 0 0 0 0 0
0 0 0 0 0 0 0 0 0 0 0 0 0 0 0 0 0 0 0 0 0 0 0 0 0 0 0 0 0 0 0 0 0 0 0 0 0 0 0 0 0 0 0
0 0 0 0 0 0 0 0 0 0 0 0 0 0 0 0 0 0 0 0 0 0 0 0 0 0 0 0 0 0 0 0 0 0 0 0 0 0 0 0 0 0 0
0 0 0 0 0 0 0 0 0 0 0 0 0 0 0 0 0 0 0 0 0 0 0 0 0 0 0 0 0 0 0 0 0 0 0 0 0 0 0 0 0 0 0
0 0 0 0 0 0 0 0 0 0 0 0 0 0 0 0 0 0 0 0 0 0 0 0 0 0 0 0 0 0 0 0 0 0 0 0 0 0 0 0 0 0 0
Wind_Speed
3 4 5 6 6 7 7 6 5 4 3 2 2 2 2 2 3 4 5 5 5 4 3 3 3 2 2 1 1 0 1 0 1 1 1 1 2 3 2 2 2 2 1
4 5 5 6 6 6 6 6 6 5 4 2 1 2 2 2 2 3 4 5 5 4 3 4 3 3 2 2 2 1 0 1 1 1 1 0 1 2 3 3 2 3 2
5 5 5 5 5 6 6 5 6 6 5 4 2 2 2 2 3 4 4 5 6 6 5 5 3 3 3 2 2 1 1 1 1 1 1 2 2 0 2 3 4 4 3
6 5 5 5 5 5 5 6 6 6 6 5 4 3 3 2 2 2 3 5 6 6 6 5 5 4 3 2 2 2 1 1 1 1 1 1 1 2 1 2 3 5 5
6 6 6 5 5 4 5 5 6 7 7 6 5 5 5 3 2 3 5 5 5 6 7 6 5 5 3 3 3 3 2 1 1 1 0 1 1 1 2 2 2 3 5
7 7 6 5 5 5 5 5 6 7 7 7 7 6 6 5 5 5 4 4 3 4 7 6 5 5 4 4 3 3 2 2 1 0 0 1 1 1 2 3 2 3 3
8 7 6 5 4 5 5 5 7 7 7 7 7 6 6 6 5 4 4 4 4 4 6 6 5 5 5 4 4 3 3 2 1 1 0 0 0 1 2 4 3 3 2
7 7 5 4 4 4 5 6 7 6 6 7 7 6 6 4 4 4 3 4 3 3 4 5 6 6 6 5 4 3 3 2 2 2 1 0 0 1 2 3 5 4 3
8 7 5 5 4 4 5 5 6 6 6 6 6 6 6 6 5 4 4 3 3 3 5 6 6 6 6 6 5 4 4 3 3 3 2 2 1 1 2 2 3 4 4
8 7 5 5 5 4 5 5 5 5 5 6 5 5 6 6 5 5 6 5 5 5 6 6 6 6 7 7 6 5 4 5 4 3 4 4 2 2 2 2 2 2 4
8 7 6 5 5 5 5 5 5 5 5 6 5 6 6 6 6 6 5 5 5 6 6 6 6 6 7 6 6 6 6 7 6 5 5 5 4 3 3 3 4 4 4
8 7 6 6 5 5 5 5 4 5 5 5 5 6 6 6 6 6 6 6 6 6 6 6 6 7 7 6 7 7 7 7 7 7 7 6 5 6 5 4 5 5 5
8 7 6 5 5 4 4 4 4 4 4 5 6 6 6 6 6 5 5 6 6 6 7 7 7 7 6 6 6 7 7 7 7 7 7 6 6 7 5 6 6 6 6
8 7 6 5 4 4 4 4 4 4 4 5 6 6 5 5 5 5 6 6 6 6 7 6 6 6 6 6 6 7 7 8 7 7 7 7 7 6 7 7 7 7 8
9 8 7 5 4 4 4 4 4 3 4 5 5 4 4 5 5 6 6 6 6 7 6 7 7 7 6 6 6 6 7 7 8 8 7 7 9 9 7 6 6 7 6
9 8 7 7 5 5 4 4 3 3 4 5 4 4 4 5 5 5 5 6 6 6 7 7 7 8 6 9 10 7 7 7 8 7 7 7 9 10 11 11 9 7 7
9 8 8 7 6 5 4 4 3 3 4 4 4 4 4 5 5 5 5 6 5 6 7 7 7 7 8 10 11 11 7 8 7 7 6 6 7 8 7 10 11 10 9
9 8 7 6 5 4 4 4 4 4 4 4 4 4 4 4 4 5 5 4 4 5 5 6 6 6 8 9 10 9 8 8 8 7 6 6 7 6 6 8 8 7 7
8 7 7 6 5 5 5 5 4 4 4 3 3 3 3 3 4 4 3 3 3 4 4 4 6 6 7 9 8 7 5 6 7 7 7 7 7 8 8 8 7 7 5
7 7 7 6 6 5 6 6 5 4 3 3 3 3 3 3 3 3 2 2 3 3 3 5 5 5 5 8 7 6 4 5 5 5 6 8 8 8 7 6 6 5 3
8 8 8 6 5 6 6 6 4 3 3 3 3 3 3 3 2 2 2 2 3 3 4 4 4 5 6 7 8 6 4 3 3 4 4 4 7 7 7 5 4 3 2
8 8 7 6 5 5 6 5 4 2 3 4 3 3 2 2 2 2 2 3 2 3 3 3 4 4 5 6 6 7 6 3 3 2 2 3 5 6 6 4 4 4 3
8 7 7 6 4 4 5 5 3 3 4 4 3 2 2 2 2 2 2 2 2 2 1 2 2 3 3 4 6 6 6 5 3 2 3 3 4 5 4 5 4 3 2
7 6 7 6 4 3 4 4 4 4 5 4 2 2 2 2 2 2 1 1 1 0 0 0 1 2 2 2 3 3 3 4 3 3 3 5 6 4 3 3 3 2 1
6 6 6 6 5 4 4 4 4 5 5 4 3 2 2 2 2 1 1 0 1 2 2 1 1 1 1 2 2 1 2 2 2 2 2 3 3 3 3 2 2 1 1
6 6 6 5 5 4 4 4 4 5 5 3 2 2 1 1 1 1 1 2 1 1 3 4 3 2 3 3 3 2 3 3 2 2 2 1 1 2 2 2 2 1 1
Wind_Direction
87 74 61 58 54 49 50 46 51 36 34 38 42 45 45 35 31 31 32 30 25 23 31 25 20 21 20 1 13 83 105 123 122 110 75 47 40 31 17 13 19 11 352
106 80 61 56 52 46 43 40 36 35 36 35 53 76 85 66 46 27 29 27 25 23 32 30 22 20 24 20 16 30 126 197 179 157 160 232 354 26 27 26 25 15 23
134 108 87 71 59 50 38 36 28 31 33 37 58 67 64 54 35 21 14 15 23 27 28 25 22 18 21 9 349 337 250 232 233 198 185 191 213 113 34 34 33 33 36
128 114 96 75 59 47 41 40 36 38 31 35 56 68 75 64 37 23 16 16 24 25 27 25 21 19 16 5 344 338 307 260 247 236 208 184 162 172 130 51 39 42 40
134 120 105 92 74 58 50 40 41 43 37 43 53 64 67 66 52 42 36 27 22 22 22 23 21 15 10 7 0 352 348 322 270 250 172 139 124 159 153 134 79 53 38
127 113 102 92 74 61 55 51 53 46 40 47 52 62 71 67 56 42 32 23 16 17 17 19 20 17 11 6 1 360 4 360 338 320 286 198 177 170 144 136 120 86 49
128 121 114 98 83 66 56 54 59 50 44 50 51 54 63 65 56 42 32 27 21 15 8 14 17 15 7 6 7 15 15 8 6 4 315 281 249 150 137 129 123 104 74
130 126 117 103 99 83 69 65 62 56 48 52 50 49 52 56 50 40 38 32 20 11 7 18 23 19 14 13 15 23 17 18 19 23 34 63 45 119 136 138 137 122 90
130 126 114 98 90 84 75 70 69 61 53 53 55 50 48 52 49 40 37 32 18 19 24 27 27 23 19 16 18 27 23 27 34 33 41 53 49 76 101 118 136 138 137
130 124 110 95 86 78 72 69 70 66 58 54 54 58 50 47 44 43 37 32 26 27 29 28 28 27 23 20 27 28 26 39 37 41 54 54 50 62 76 101 97 107 126
135 125 111 100 91 83 78 71 65 66 60 54 54 53 47 45 48 46 37 32 32 30 31 26 29 29 26 23 31 34 35 41 39 39 56 56 54 63 65 80 88 89 103
130 125 119 109 97 86 79 75 70 65 60 60 60 56 49 48 48 42 36 37 40 35 32 31 35 32 29 28 34 37 38 41 41 40 49 51 61 65 65 78 88 92 95
130 124 119 113 107 99 88 80 74 70 63 64 64 56 49 47 45 43 41 41 41 37 32 33 34 30 28 34 37 42 45 45 46 46 49 49 62 66 69 79 86 91 94
139 135 128 122 119 117 107 95 80 76 73 69 67 59 50 47 47 48 47 42 40 40 33 31 31 30 31 34 42 47 47 46 46 48 49 51 60 72 79 84 89 97 98
148 146 141 137 130 119 106 97 89 82 80 78 70 60 57 53 53 51 46 42 40 38 32 34 31 30 31 30 45 50 50 45 45 45 47 55 66 72 78 94 99 104 104
156 152 146 144 140 134 124 109 101 95 91 86 77 71 67 61 56 53 49 46 38 33 35 35 34 36 32 35 49 55 54 48 47 43 41 53 58 67 73 85 90 102 114
156 155 152 149 145 143 137 130 120 108 96 90 86 81 77 70 57 56 52 45 35 36 36 32 35 36 29 43 52 55 59 52 45 41 41 52 52 62 74 75 73 70 77
154 152 145 139 135 130 126 122 112 110 103 96 93 90 84 76 69 62 51 39 34 35 33 30 29 35 29 42 56 58 57 53 44 39 41 53 47 55 72 78 72 65 59
147 144 140 137 135 134 130 119 111 110 106 101 97 96 98 89 77 67 52 39 44 41 35 27 29 35 22 30 50 59 55 51 40 36 39 47 55 53 71 78 76 64 49
131 132 131 129 133 134 129 121 122 121 125 127 115 103 104 101 87 70 56 50 59 53 48 41 30 30 23 23 44 54 60 52 37 31 31 40 52 57 67 80 85 76 48
131 132 131 132 136 135 129 126 131 143 146 125 112 101 97 101 101 76 61 68 67 57 47 42 29 25 20 22 39 56 64 62 49 37 21 17 36 58 66 74 79 91 92
129 132 131 129 128 133 133 134 147 152 126 114 106 97 90 90 102 91 70 64 66 56 36 29 21 17 12 21 35 52 59 66 67 39 6 1 29 53 61 68 82 90 83
133 131 131 126 124 134 142 147 160 136 120 110 103 93 82 72 80 89 79 61 58 63 36 30 16 357 360 6 24 37 42 47 56 17 15 33 51 58 54 56 65 74 81
134 132 131 132 135 139 145 154 146 133 124 120 111 100 93 71 60 61 67 79 66 54 12 347 338 342 347 350 356 5 13 21 29 17 18 38 57 59 50 42 43 45 61
133 136 142 145 148 144 144 149 144 134 126 123 116 107 97 92 68 47 22 286 226 214 209 222 217 232 307 302 306 328 342 342 344 4 28 31 27 27 26 27 30 35 59
136 138 143 147 151 151 151 153 150 143 137 132 129 125 123 115 106 69 8 4 301 279 223 212 204 232 245 281 311 316 324 333 7 64 40 19 12 2 350 349 351 353 360